St. Kitts, Saint Kitts and Nevis

12:24 PM AST on October 20, 2017 (GMT -0400)
St. Kitts

Weather History for TKPK - July, 2013

Change the Weather History Date:

Friday, July 5, 2013

  Actual Average Record
Temperature  
Mean Temperature 83 °F -  
Max Temperature 88 °F 85 °F 89 °F (1997)
Min Temperature 78 °F 77 °F 76 °F (2014)
Cooling Degree Days 18    
Growing Degree Days 33 (Base 50)    
Moisture  
Dew Point 74 °F    
Average Humidity 76    
Maximum Humidity 94    
Minimum Humidity 61    
Precipitation  
Precipitation 0.08 in - - ()
Sea Level Pressure  
Sea Level Pressure 30.02 in    
Wind  
Wind Speed 12 mph ()    
Max Wind Speed 17 mph    
Max Gust Speed -    
Visibility 7.6 miles    
Events Rain    
Averages and records for this station are not official NWS values.
T = Trace of Precipitation, MM = Missing Value Source: Averaged Metar Reports

Daily Weather History Graph

Daily Weather History Graph

Search for Another Location

Airport or City:

Trip Planner

Search our weather history database for the weather conditions in past years. The results will help you decide how hot, cold, wet, or windy it might be!

Date:

Astronomy

Jul. 05, 2013 Rise Set
Actual Time 5:41 AM AST 6:49 PM AST
Civil Twilight 5:17 AM AST 7:13 PM AST
Nautical Twilight 4:49 AM AST 7:41 PM AST
Astronomical Twilight 4:20 AM AST 8:10 PM AST
Moon 3:29 AM AST (7/5) 4:47 PM AST (7/5)
Length of Visible Light 13h 55m
Length of Day
13h 07m
Waning Crescent, 6% of the Moon is Illuminated
Jul 5
Waning Crescent
Jul 8
New
Jul 15
First Quarter
Jul 22
Full
Jul 29
Last Quarter

Hourly Weather History & Observations

Time (AST) Temp. Heat Index Dew Point Humidity Pressure Visibility Wind Dir Wind Speed Gust Speed Precip Events Conditions
6:00 AM 80.6 °F 84.6 °F 71.6 °F 74% 30.04 in 6.2 mi NE 15.0 mph - N/A   Partly Cloudy
7:00 AM 80.6 °F 85.4 °F 73.4 °F 79% 30.04 in 6.2 mi NE 15.0 mph - N/A   Scattered Clouds
8:00 AM 82.4 °F 88.2 °F 73.4 °F 74% 30.04 in 6.2 mi NE 13.8 mph - N/A   Partly Cloudy
9:00 AM 84.2 °F 90.9 °F 73.4 °F 70% 30.04 in 6.2 mi NE 15.0 mph - N/A   Mostly Cloudy
10:00 AM 84.2 °F 90.9 °F 73.4 °F 70% 30.04 in 6.2 mi NE 16.1 mph - N/A   Mostly Cloudy
11:00 AM 85 °F - 74 °F 61% 30.06 in 12 mi ENE 13.8 mph - -   Haze
11:00 AM 86.0 °F 93.4 °F 73.4 °F 66% 30.04 in 6.2 mi ENE 13.8 mph - N/A   Mostly Cloudy
12:00 PM 87.8 °F 97.6 °F 75.2 °F 66% 30.04 in 6.2 mi NNE 13.8 mph - N/A   Mostly Cloudy
1:00 PM 87.8 °F 95.6 °F 73.4 °F 62% 30.04 in 6.2 mi East 16.1 mph - N/A   Scattered Clouds
3:00 PM 84.2 °F 92.3 °F 75.2 °F 74% 30.01 in 6.2 mi NE 12.7 mph - N/A   Scattered Clouds
4:00 PM 86.0 °F 93.4 °F 73.4 °F 66% 30.01 in 6.2 mi NE 10.4 mph - N/A   Partly Cloudy
5:00 PM 79 °F - 75 °F 83% 30.00 in 18 mi 2.3 mph - - Rain Light Rain Showers
5:00 PM 78.8 °F - 75.2 °F 89% 29.98 in 6.2 mi Variable 2.3 mph - N/A   Mostly Cloudy
6:00 PM 80.6 °F 86.2 °F 75.2 °F 84% 29.98 in 6.2 mi NNE 8.1 mph - N/A   Scattered Clouds
7:00 PM 80.6 °F 85.4 °F 73.4 °F 79% 30.01 in 6.2 mi NE 16.1 mph - N/A   Scattered Clouds
8:00 PM 79 °F - 76 °F 88% 30.02 in 16 mi NE 13.8 mph - - Rain Light Rain Showers
8:00 PM 78.8 °F - 77.0 °F 94% 30.01 in 6.2 mi NE 13.8 mph - N/A   Scattered Clouds
9:00 PM 78.8 °F - 73.4 °F 83% 30.01 in 6.2 mi NE 17.3 mph - N/A   Partly Cloudy
10:00 PM 78.8 °F - 73.4 °F 83% 30.01 in 6.2 mi NE 16.1 mph - N/A   Partly Cloudy